Roseau, MN

11:20 PM CST on February 23, 2017 (GMT -0600)
Roseau Municipal-Billberg

Weather History for KROX - November, 2012

Change the Weather History Date:

Tuesday, November 6, 2012

  Actual Average Record
Temperature  
Mean Temperature 35 °F -  
Max Temperature 37 °F 38 °F 69 °F (2016)
Min Temperature 33 °F 19 °F -4 °F (1991)
Degree Days  
Heating Degree Days 30    
Moisture  
Dew Point 31 °F    
Average Humidity 83    
Maximum Humidity 87    
Minimum Humidity 81    
Precipitation  
Precipitation 0.05 in - - ()
Sea Level Pressure  
Sea Level Pressure 29.78 in    
Wind  
Wind Speed 12 mph (WNW)    
Max Wind Speed 20 mph    
Max Gust Speed 25 mph    
Visibility 8 miles    
Events Rain , Snow    
Averages and records for this station are not official NWS values.
T = Trace of Precipitation, MM = Missing Value Source: NWS Daily Summary

Daily Weather History Graph

Daily Weather History Graph

Search for Another Location

Airport or City:

Trip Planner

Search our weather history database for the weather conditions in past years. The results will help you decide how hot, cold, wet, or windy it might be!

Date:

Astronomy

Nov. 06, 2012 Rise Set
Actual Time 7:18 AM CST 4:53 PM CST
Civil Twilight 6:44 AM CST 5:27 PM CST
Nautical Twilight 6:07 AM CST 6:05 PM CST
Astronomical Twilight 5:30 AM CST 6:41 PM CST
Moon 11:40 PM CST (11/6) 1:06 PM CST (11/6)
Length of Visible Light 10h 42m
Length of Day
9h 35m
Waning Gibbous, 53% of the Moon is Illuminated
Nov 6
Waning Gibbous
Nov 6
Last Quarter
Nov 13
New
Nov 20
First Quarter
Nov 28
Full

Hourly Weather History & Observations

Time (CST) Temp. Windchill Dew Point Humidity Pressure Visibility Wind Dir Wind Speed Gust Speed Precip Events Conditions
12:14 AM 33.8 °F 23.9 °F 30.2 °F 87% 29.65 in 5.0 mi South 15.0 mph 21.9 mph N/A   Mostly Cloudy
12:35 AM 33.8 °F 23.5 °F 30.2 °F 87% 29.64 in 5.0 mi South 16.1 mph - N/A Snow Light Snow
12:54 AM 33.8 °F 23.9 °F 28.4 °F 81% 29.64 in 5.0 mi South 15.0 mph - 0.01 in Snow Light Snow
1:14 AM 33.8 °F 24.8 °F 28.4 °F 81% 29.63 in 3.0 mi South 12.7 mph 17.3 mph N/A Snow Light Snow
1:35 AM 33.8 °F 24.3 °F 28.4 °F 81% 29.63 in 3.0 mi South 13.8 mph - 0.01 in Rain Light Rain
1:54 AM 33.8 °F 25.8 °F 30.2 °F 87% 29.62 in 2.0 mi SSW 10.4 mph - 0.02 in   Light Drizzle
2:14 AM 35.6 °F 28.6 °F 30.2 °F 81% 29.61 in 2.0 mi SSW 9.2 mph - N/A   Haze
2:35 AM 35.6 °F 29.9 °F 30.2 °F 81% 29.60 in 4.0 mi SW 6.9 mph - N/A   Haze
2:54 AM 35.6 °F 28.6 °F 32.0 °F 87% 29.61 in 7.0 mi West 9.2 mph - N/A   Overcast
3:14 AM 37.4 °F 30.3 °F 32.0 °F 81% 29.60 in 7.0 mi WNW 10.4 mph 16.1 mph N/A   Overcast
3:35 AM 37.4 °F 29.8 °F 32.0 °F 81% 29.61 in 5.0 mi West 11.5 mph 17.3 mph N/A   Haze
3:54 AM 37.4 °F 29.3 °F 32.0 °F 81% 29.61 in 4.0 mi WNW 12.7 mph 18.4 mph N/A   Light Drizzle
4:14 AM 37.4 °F 30.8 °F 32.0 °F 81% 29.61 in 7.0 mi WNW 9.2 mph - N/A   Scattered Clouds
4:35 AM 37.4 °F 32.1 °F 32.0 °F 81% 29.62 in 7.0 mi West 6.9 mph - N/A   Scattered Clouds
4:54 AM 37.4 °F 30.3 °F 32.0 °F 81% 29.62 in 7.0 mi West 10.4 mph 16.1 mph N/A   Scattered Clouds
5:14 AM 35.6 °F 28.6 °F 32.0 °F 87% 29.63 in 4.0 mi WNW 9.2 mph - N/A   Mostly Cloudy
5:35 AM 35.6 °F 27.5 °F 30.2 °F 81% 29.63 in 10.0 mi WNW 11.5 mph 21.9 mph N/A   Mostly Cloudy
5:54 AM 35.6 °F 29.2 °F 30.2 °F 81% 29.63 in 10.0 mi West 8.1 mph - N/A   Mostly Cloudy
6:14 AM 35.6 °F 27.1 °F 30.2 °F 81% 29.63 in 10.0 mi WNW 12.7 mph 17.3 mph N/A   Mostly Cloudy
6:35 AM 35.6 °F 27.5 °F 30.2 °F 81% 29.64 in 10.0 mi WNW 11.5 mph 18.4 mph N/A   Scattered Clouds
6:54 AM 35.6 °F 27.1 °F 30.2 °F 81% 29.64 in 5.0 mi WNW 12.7 mph 19.6 mph N/A   Mostly Cloudy
7:14 AM 35.6 °F 27.5 °F 30.2 °F 81% 29.65 in 10.0 mi WNW 11.5 mph 17.3 mph N/A   Mostly Cloudy
7:34 AM 35.6 °F 28.0 °F 30.2 °F 81% 29.66 in 3.0 mi WNW 10.4 mph - N/A   Haze
7:54 AM 35.6 °F 28.6 °F 30.2 °F 81% 29.67 in 4.0 mi WNW 9.2 mph - N/A   Haze
8:14 AM 35.6 °F 27.5 °F 30.2 °F 81% 29.68 in 4.0 mi WNW 11.5 mph - N/A Snow Light Snow
8:34 AM 35.6 °F 28.0 °F 30.2 °F 81% 29.68 in 7.0 mi WNW 10.4 mph - N/A   Scattered Clouds
8:54 AM 33.8 °F 25.8 °F 30.2 °F 87% 29.69 in 7.0 mi WNW 10.4 mph 16.1 mph N/A Snow Light Snow
9:14 AM 33.8 °F 24.8 °F 28.4 °F 81% 29.69 in 1.0 mi NW 12.7 mph 18.4 mph N/A Snow Light Snow
9:34 AM 33.8 °F 24.8 °F 28.4 °F 81% 29.70 in 0.8 mi NW 12.7 mph - 0.01 in Snow Light Snow
9:55 AM 33.8 °F 24.8 °F 28.4 °F 81% 29.71 in 2.5 mi NW 12.7 mph - 0.01 in Snow Light Snow
10:14 AM 33.8 °F 24.3 °F 28.4 °F 81% 29.72 in 2.0 mi NW 13.8 mph - N/A Snow Light Snow
10:34 AM 35.6 °F 26.2 °F 30.2 °F 81% 29.73 in 10.0 mi NW 15.0 mph 20.7 mph N/A   Scattered Clouds
10:55 AM 35.6 °F 24.8 °F 30.2 °F 81% 29.74 in 10.0 mi NW 19.6 mph 23.0 mph N/A Snow Light Snow
11:14 AM 35.6 °F 25.2 °F 32.0 °F 87% 29.75 in 10.0 mi NNW 18.4 mph - N/A Snow Light Snow
11:34 AM 35.6 °F 25.2 °F 30.2 °F 81% 29.76 in 5.0 mi NNW 18.4 mph 23.0 mph N/A Rain Light Rain
11:55 AM 35.6 °F 25.5 °F 32.0 °F 87% 29.77 in 7.0 mi NNW 17.3 mph 25.3 mph 0.01 in   Light Drizzle
12:14 PM 37.4 °F 28.5 °F 32.0 °F 81% 29.77 in 10.0 mi NW 15.0 mph 20.7 mph N/A Rain Light Rain
12:34 PM 37.4 °F 27.2 °F 32.0 °F 81% 29.78 in 10.0 mi NNW 19.6 mph 24.2 mph N/A Rain Light Rain
12:55 PM 35.6 °F 25.2 °F 32.0 °F 87% 29.79 in 10.0 mi NW 18.4 mph - N/A Rain Light Rain
1:14 PM 37.4 °F 28.2 °F 32.0 °F 81% 29.80 in 10.0 mi NW 16.1 mph 21.9 mph N/A Rain Light Rain
1:34 PM 37.4 °F 27.5 °F 32.0 °F 81% 29.81 in 10.0 mi NNW 18.4 mph - N/A   Clear
1:54 PM 35.6 °F 25.5 °F 32.0 °F 87% 29.82 in 10.0 mi NNW 17.3 mph 23.0 mph N/A   Scattered Clouds
2:14 PM 37.4 °F 28.2 °F 32.0 °F 81% 29.83 in 7.0 mi NNW 16.1 mph - N/A   Clear
2:34 PM 37.4 °F 28.9 °F 32.0 °F 81% 29.84 in 10.0 mi NNW 13.8 mph - N/A   Clear
2:54 PM 37.4 °F 28.9 °F 32.0 °F 81% 29.85 in 10.0 mi NNW 13.8 mph - N/A   Clear
3:14 PM 37.4 °F 30.3 °F 32.0 °F 81% 29.86 in 10.0 mi NW 10.4 mph 19.6 mph N/A   Scattered Clouds
3:34 PM 37.4 °F 29.8 °F 32.0 °F 81% 29.87 in 10.0 mi NW 11.5 mph - N/A   Scattered Clouds
3:54 PM 35.6 °F 26.6 °F 32.0 °F 87% 29.88 in 10.0 mi NW 13.8 mph 18.4 mph N/A   Scattered Clouds
4:14 PM 35.6 °F 27.1 °F 32.0 °F 87% 29.90 in 10.0 mi NW 12.7 mph 17.3 mph N/A   Mostly Cloudy
4:34 PM 35.6 °F 28.6 °F 30.2 °F 81% 29.90 in 10.0 mi NW 9.2 mph - N/A   Mostly Cloudy
4:54 PM 35.6 °F 28.6 °F 32.0 °F 87% 29.91 in 10.0 mi NW 9.2 mph - N/A   Mostly Cloudy
5:14 PM 35.6 °F 27.5 °F 32.0 °F 87% 29.91 in 10.0 mi NNW 11.5 mph - N/A   Overcast
5:34 PM 35.6 °F 29.2 °F 32.0 °F 87% 29.93 in 10.0 mi NW 8.1 mph - N/A   Overcast
5:54 PM 35.6 °F 29.2 °F 32.0 °F 87% 29.93 in 7.0 mi NW 8.1 mph - N/A   Overcast
6:14 PM 35.6 °F 29.2 °F 32.0 °F 87% 29.94 in 10.0 mi NNW 8.1 mph - N/A   Overcast
6:34 PM 35.6 °F 29.2 °F 32.0 °F 87% 29.95 in 10.0 mi NW 8.1 mph - N/A   Overcast
6:54 PM 37.4 °F 32.1 °F 32.0 °F 81% 29.95 in 10.0 mi NNW 6.9 mph - N/A   Overcast
7:14 PM 37.4 °F 32.8 °F 32.0 °F 81% 29.95 in 10.0 mi NW 5.8 mph - N/A   Overcast
7:34 PM 37.4 °F 32.8 °F 32.0 °F 81% 29.96 in 10.0 mi NW 5.8 mph - N/A   Scattered Clouds
7:54 PM 37.4 °F 32.8 °F 32.0 °F 81% 29.96 in 10.0 mi NW 5.8 mph - N/A   Scattered Clouds
8:14 PM 37.4 °F 33.8 °F 32.0 °F 81% 29.96 in 10.0 mi NW 4.6 mph - N/A   Scattered Clouds
8:34 PM 37.4 °F 32.8 °F 32.0 °F 81% 29.96 in 10.0 mi WNW 5.8 mph - N/A   Scattered Clouds
8:54 PM 37.4 °F 33.8 °F 32.0 °F 81% 29.96 in 10.0 mi WNW 4.6 mph - N/A   Scattered Clouds
9:14 PM 37.4 °F 33.8 °F 32.0 °F 81% 29.97 in 10.0 mi WNW 4.6 mph - N/A   Scattered Clouds
9:34 PM 37.4 °F 34.9 °F 32.0 °F 81% 29.97 in 10.0 mi WNW 3.5 mph - N/A   Scattered Clouds
9:54 PM 37.4 °F - 32.0 °F 81% 29.97 in 10.0 mi Calm Calm - N/A   Scattered Clouds
10:15 PM 37.4 °F 34.9 °F 32.0 °F 81% 29.97 in 10.0 mi West 3.5 mph - N/A   Scattered Clouds
10:34 PM 37.4 °F 33.8 °F 32.0 °F 81% 29.97 in 10.0 mi West 4.6 mph - N/A   Mostly Cloudy
10:54 PM 37.4 °F 32.8 °F 32.0 °F 81% 29.97 in 10.0 mi West 5.8 mph - N/A   Mostly Cloudy
11:15 PM 37.4 °F 32.8 °F 33.8 °F 87% 29.97 in 10.0 mi West 5.8 mph - N/A   Scattered Clouds
11:34 PM 37.4 °F 32.8 °F 33.8 °F 87% 29.98 in 10.0 mi West 5.8 mph - N/A   Scattered Clouds
11:54 PM 37.4 °F 32.8 °F 33.8 °F 87% 29.98 in 10.0 mi WNW 5.8 mph - N/A   Clear